FW3893 Weather Reports


time (UTC)temp
C
wind
direction
speed
KPH
gust
KPH
rain 1hr
cm
rain 24hr
cm
rain mn
cm
humidity
%
barometer
mb
20260505040818 13 0.0 0.0 0.00 0.00 0.00 81 1008.6
20260505035820 13 0.0 0.0 0.00 0.00 0.00 81 1009.0
20260505034823 13 0.0 0.0 0.00 0.00 0.00 81 1009.0
20260505033835 13 0.0 0.0 0.00 0.00 0.00 81 1008.9
20260505032838 13 0.0 0.0 0.00 0.00 0.00 81 1008.9
20260505031841 13 0.0 0.0 0.00 0.00 0.00 80 1009.3
20260505030823 13 0.0 0.0 0.00 0.00 0.00 79 1009.3
20260505025815 13 0.0 0.0 0.00 0.00 0.00 79 1009.1
20260505024816 14 0.0 0.0 0.00 0.00 0.00 79 1009.1
20260505023819 14 0.0 0.0 0.00 0.00 0.00 78 1009.5
20260505022821 14 0.0 0.0 0.00 0.00 0.00 78 1009.5
20260505021824 14 0.0 0.0 0.00 0.00 0.00 77 1009.8
20260505020815 14 0.0 0.0 0.00 0.00 0.00 76 1009.8
20260505015818 14 0.0 0.0 0.00 0.00 0.00 76 1009.9
20260505014840 14 0.0 0.0 0.00 0.00 0.00 75 1009.9
20260505013822 14 0.0 0.0 0.00 0.00 0.00 75 1009.9
20260505012824 15 0.0 0.0 0.00 0.00 0.00 73 1009.9
20260505011836 15 0.0 0.0 0.00 0.00 0.00 72 1010.1
20260505010818 15 0.0 0.0 0.00 0.00 0.00 72 1010.1
20260505005820 15 0.0 0.0 0.00 0.00 0.00 72 1010.6
20260505004823 15 0.0 0.0 0.00 0.00 0.00 71 1010.6
20260505003824 15 0.0 0.0 0.00 0.00 0.00 71 1010.6
20260505002817 15 0.0 0.0 0.00 0.00 0.00 70 1010.6
20260505001819 15 0.0 0.0 0.00 0.00 0.00 70 1010.8
20260505000821 15 0.0 0.0 0.00 0.00 0.00 70 1010.8
20260504235822 15 0.0 0.0 0.00 0.00 0.00 70 1011.3
20260504234825 15 0.0 0.0 0.00 0.00 0.00 69 1011.3
20260504233816 15 0.0 0.0 0.00 0.00 0.00 68 1011.5
20260504232818 15 0.0 0.0 0.00 0.00 0.00 68 1011.5
20260504231821 16 0.0 0.0 0.00 0.00 0.00 67 1011.7
20260504230823 16 0.0 0.0 0.00 0.00 0.00 67 1011.7
20260504225836 16 0.0 0.0 0.00 0.00 0.00 67 1012.2
20260504224818 16 0.0 0.0 0.00 0.00 0.00 67 1012.2
20260504223820 15 0.0 0.0 0.00 0.00 0.00 68 1012.3
20260504222824 15 0.0 0.0 0.00 0.00 0.00 69 1012.3
20260504221815 15 0.0 0.0 0.00 0.00 0.00 69 1012.2
20260504220817 15 0.0 0.0 0.00 0.00 0.00 69 1012.2
20260504215819 15 0.0 0.0 0.00 0.00 0.00 69 1012.1
20260504214821 15 0.0 0.0 0.00 0.00 0.00 69 1012.1
20260504213824 15 0.0 0.0 0.00 0.00 0.00 69 1012.1
20260504212836 15 0.0 0.0 0.00 0.00 0.00 69 1012.1
20260504211838 15 0.0 0.0 0.00 0.00 0.00 69 1012.5
20260504210840 15 0.0 0.0 0.00 0.00 0.00 68 1012.5
20260504205822 15 0.0 0.0 0.00 0.00 0.00 68 1012.5
20260504204825 15 0.0 0.0 0.00 0.00 0.00 68 1012.5
20260504203818 15 0.0 0.0 0.00 0.00 0.00 67 1012.7
20260504202820 15 0.0 0.0 0.00 0.00 0.00 66 1012.7
20260504201822 15 0.0 0.0 0.00 0.00 0.00 67 1012.5
20260504200815 15 0.0 0.0 0.00 0.00 0.00 66 1012.5
20260504195817 15 0.0 0.0 0.00 0.00 0.00 66 1012.3
20260504194824 16 0.0 0.0 0.00 0.00 0.00 65 1012.3
20260504193824 16 0.0 0.0 0.00 0.00 0.00 64 1012.1
20260504192827 16 0.0 0.0 0.00 0.00 0.00 63 1012.1
20260504191818 17 0.0 0.0 0.00 0.00 0.00 62 1012.0
20260504190830 17 0.0 0.0 0.00 0.00 0.00 61 1012.0
20260504185823 17 0.0 0.0 0.00 0.00 0.00 60 1011.8
20260504184815 17 0.0 0.0 0.00 0.00 0.00 60 1011.8
20260504183837 18 0.0 0.0 0.00 0.00 0.00 58 1011.6
20260504182820 18 0.0 0.0 0.00 0.00 0.00 58 1011.7
20260504181823 19 0.0 0.0 0.00 0.00 0.00 56 1011.7
20260504180825 19 0.0 0.0 0.00 0.00 0.00 54 1011.7
20260504175816 20 0.0 0.0 0.00 0.00 0.00 53 1011.6
20260504174818 20 0.0 0.0 0.00 0.00 0.00 53 1011.6
20260504173819 20 0.0 0.0 0.00 0.00 0.00 51 1011.7
20260504172842 21 0.0 0.0 0.00 0.00 0.00 51 1011.7
20260504171825 21 0.0 0.0 0.00 0.00 0.00 50 1011.7
20260504170815 21 0.0 0.0 0.00 0.00 0.00 50 1011.7
20260504150823 21 0.0 0.0 0.00 0.00 0.00 47 1012.2
20260504140816 21 0.0 0.0 0.00 0.00 0.00 43 1013.1
20260504130820 20 0.0 0.0 0.00 0.00 0.00 44 1013.6
20260504081815 18 0.0 0.0 0.00 0.00 0.00 51 1013.9
20260504080818 18 0.0 0.0 0.00 0.00 0.00 53 1013.9
20260504045821 12 0.0 0.0 0.00 0.00 0.00 64 1013.1